When you browse on this site, cookies collect data to enhance your experience and personalize the content and advertising you see.
Visit our Privacy Policy to learn more. By continuing to use the site, you agree to this use of cookies and data.
  • In France
  • List of Countries
  • For 7 days
  • Water Temperature
  • Satellite Maps
  • Weather Map
  • Weather Widgets
  • user-avatar
    Login

    Hourly Weather Nashavar

    Today, 26 April, Friday

    Time Temperature Precipitation Wind Pressure Humidity
    00:00 +26°C° 0 mm 2 mps 729 mmHg 54%
    01:00 +26°C° 0 mm 2 mps 729 mmHg 55%
    02:00 +25°C° 0 mm 2 mps 728 mmHg 57%
    03:00 +25°C° 0 mm 2 mps 729 mmHg 57%
    04:00 +24°C° 0 mm 2 mps 729 mmHg 58%
    05:00 +24°C° 0 mm 2 mps 729 mmHg 59%
    06:00 +25°C° 0 mm 2 mps 729 mmHg 55%
    07:00 +26°C° 0 mm 1 mps 729 mmHg 50%
    08:00 +27°C° 0 mm 1 mps 730 mmHg 46%
    09:00 +29°C° 0 mm 1 mps 730 mmHg 41%
    10:00 +30°C° 0 mm 1 mps 730 mmHg 36%
    11:00 +32°C° 0 mm 1 mps 730 mmHg 32%
    12:00 +33°C° 0 mm 1 mps 730 mmHg 28%
    13:00 +35°C° 0 mm 2 mps 730 mmHg 24%
    14:00 +36°C° 0 mm 2 mps 729 mmHg 20%
    15:00 +36°C° 0 mm 2 mps 729 mmHg 18%
    16:00 +36°C° 0 mm 2 mps 729 mmHg 16%
    17:00 +37°C° 0 mm 3 mps 728 mmHg 14%
    18:00 +35°C° 0 mm 3 mps 728 mmHg 17%
    19:00 +33°C° 0 mm 3 mps 729 mmHg 21%
    20:00 +31°C° 0 mm 3 mps 729 mmHg 25%
    21:00 +30°C° 0 mm 2 mps 729 mmHg 28%
    22:00 +29°C° 0 mm 2 mps 729 mmHg 30%
    23:00 +28°C° 0 mm 1 mps 730 mmHg 33%

    Tomorrow, 27 April, Saturday

    Time Temperature Precipitation Wind Pressure Humidity
    00:00 +28°C° 0 mm 1 mps 729 mmHg 34%
    01:00 +27°C° 0 mm 1 mps 729 mmHg 35%
    02:00 +27°C° 0 mm 2 mps 729 mmHg 35%
    03:00 +26°C° 0 mm 2 mps 729 mmHg 36%
    04:00 +26°C° 0 mm 2 mps 729 mmHg 38%
    05:00 +25°C° 0 mm 2 mps 729 mmHg 39%
    06:00 +26°C° 0 mm 2 mps 729 mmHg 37%
    07:00 +28°C° 0 mm 2 mps 729 mmHg 34%
    08:00 +29°C° 0 mm 2 mps 730 mmHg 32%
    09:00 +30°C° 0 mm 2 mps 730 mmHg 29%
    10:00 +32°C° 0 mm 2 mps 730 mmHg 25%
    11:00 +34°C° 0 mm 2 mps 730 mmHg 22%
    12:00 +35°C° 0 mm 2 mps 729 mmHg 20%
    13:00 +35°C° 0 mm 1 mps 729 mmHg 18%
    14:00 +36°C° 0 mm 1 mps 729 mmHg 16%
    15:00 +36°C° 0 mm 1 mps 728 mmHg 16%
    16:00 +37°C° 0 mm 2 mps 728 mmHg 15%
    17:00 +37°C° 0 mm 2 mps 727 mmHg 14%
    18:00 +36°C° 0 mm 2 mps 727 mmHg 17%
    19:00 +34°C° 0 mm 2 mps 728 mmHg 19%
    20:00 +31°C° 0 mm 2 mps 728 mmHg 22%
    21:00 +31°C° 0 mm 1 mps 728 mmHg 24%
    22:00 +30°C° 0 mm 1 mps 728 mmHg 25%
    23:00 +29°C° 0 mm 1 mps 728 mmHg 27%

    Day after tomorrow, 28 April, Sunday

    Time Temperature Precipitation Wind Pressure Humidity
    00:00 +28°C° 0 mm 1 mps 728 mmHg 29%
    01:00 +27°C° 0 mm 2 mps 728 mmHg 30%
    02:00 +27°C° 0 mm 2 mps 728 mmHg 31%
    03:00 +26°C° 0 mm 2 mps 728 mmHg 32%
    04:00 +26°C° 0 mm 2 mps 728 mmHg 34%
    05:00 +25°C° 0 mm 2 mps 728 mmHg 35%
    06:00 +26°C° 0 mm 2 mps 728 mmHg 32%
    07:00 +28°C° 0 mm 3 mps 729 mmHg 28%
    08:00 +29°C° 0 mm 3 mps 729 mmHg 25%
    09:00 +30°C° 0 mm 3 mps 729 mmHg 22%
    10:00 +33°C° 0 mm 3 mps 729 mmHg 19%
    11:00 +35°C° 0 mm 3 mps 729 mmHg 16%
    12:00 +35°C° 0 mm 3 mps 729 mmHg 15%
    13:00 +36°C° 0 mm 2 mps 728 mmHg 14%
    14:00 +37°C° 0 mm 2 mps 728 mmHg 13%
    15:00 +37°C° 0 mm 2 mps 727 mmHg 13%
    16:00 +36°C° 0 mm 1 mps 727 mmHg 13%
    17:00 +36°C° 0 mm 1 mps 727 mmHg 13%
    18:00 +34°C° 0 mm 1 mps 727 mmHg 16%
    19:00 +33°C° 0 mm 1 mps 727 mmHg 19%
    20:00 +32°C° 0 mm 1 mps 727 mmHg 22%
    21:00 +31°C° 0 mm 1 mps 727 mmHg 22%
    22:00 +30°C° 0 mm 1 mps 728 mmHg 22%
    23:00 +30°C° 0 mm 1 mps 728 mmHg 22%

    29 April, Monday

    Time Temperature Precipitation Wind Pressure Humidity
    00:00 +29°C° 0 mm 1 mps 728 mmHg 22%
    01:00 +29°C° 0 mm 1 mps 727 mmHg 23%
    02:00 +28°C° 0 mm 2 mps 727 mmHg 23%
    03:00 +27°C° 0 mm 2 mps 727 mmHg 23%
    04:00 +27°C° 0 mm 2 mps 727 mmHg 23%
    05:00 +26°C° 0 mm 2 mps 727 mmHg 23%
    06:00 +27°C° 0 mm 2 mps 727 mmHg 22%
    07:00 +29°C° 0 mm 2 mps 727 mmHg 20%
    08:00 +30°C° 0 mm 2 mps 727 mmHg 18%
    09:00 +32°C° 0 mm 2 mps 727 mmHg 16%
    10:00 +34°C° 0 mm 2 mps 727 mmHg 15%
    11:00 +35°C° 0 mm 2 mps 728 mmHg 14%
    12:00 +36°C° 0 mm 2 mps 727 mmHg 13%
    13:00 +37°C° 0 mm 2 mps 727 mmHg 12%
    14:00 +38°C° 0 mm 2 mps 726 mmHg 11%
    15:00 +38°C° 0 mm 2 mps 726 mmHg 12%
    16:00 +38°C° 0 mm 2 mps 726 mmHg 12%
    17:00 +37°C° 0 mm 2 mps 725 mmHg 13%
    18:00 +36°C° 0 mm 2 mps 726 mmHg 15%
    19:00 +35°C° 0 mm 2 mps 726 mmHg 17%
    20:00 +32°C° 0 mm 1 mps 726 mmHg 19%
    21:00 +32°C° 0 mm 2 mps 726 mmHg 19%
    22:00 +31°C° 0 mm 2 mps 726 mmHg 18%
    23:00 +30°C° 0 mm 2 mps 726 mmHg 18%

    30 April, Tuesday

    Time Temperature Precipitation Wind Pressure Humidity
    00:00 +30°C° 0 mm 3 mps 726 mmHg 19%
    01:00 +30°C° 0 mm 3 mps 726 mmHg 20%
    02:00 +29°C° 0 mm 3 mps 725 mmHg 21%
    03:00 +29°C° 0 mm 3 mps 725 mmHg 24%
    04:00 +28°C° 0 mm 3 mps 725 mmHg 26%
    05:00 +28°C° 0 mm 3 mps 725 mmHg 28%
    06:00 +28°C° 0.1 mm 4 mps 726 mmHg 30%
    07:00 +28°C° 0.1 mm 5 mps 726 mmHg 31%
    08:00 +28°C° 0.1 mm 5 mps 727 mmHg 32%
    09:00 +29°C° 0 mm 5 mps 727 mmHg 31%
    10:00 +30°C° 0 mm 5 mps 727 mmHg 30%
    11:00 +30°C° 0 mm 5 mps 727 mmHg 28%
    12:00 +32°C° 0 mm 5 mps 726 mmHg 27%
    13:00 +33°C° 0 mm 5 mps 725 mmHg 26%
    14:00 +34°C° 0 mm 4 mps 725 mmHg 24%
    15:00 +34°C° 0 mm 4 mps 724 mmHg 23%
    16:00 +35°C° 0 mm 4 mps 724 mmHg 22%
    17:00 +35°C° 0 mm 4 mps 724 mmHg 21%
    18:00 +34°C° 0.1 mm 4 mps 724 mmHg 24%
    19:00 +32°C° 0.1 mm 4 mps 724 mmHg 27%
    20:00 +30°C° 0.1 mm 4 mps 724 mmHg 30%
    21:00 +29°C° 0 mm 5 mps 725 mmHg 31%
    22:00 +29°C° 0 mm 5 mps 725 mmHg 31%
    23:00 +28°C° 0 mm 5 mps 725 mmHg 31%

    1 May, Wednesday

    Time Temperature Precipitation Wind Pressure Humidity
    00:00 +27°C° 0 mm 5 mps 725 mmHg 29%
    01:00 +27°C° 0 mm 5 mps 724 mmHg 26%
    02:00 +26°C° 0 mm 5 mps 724 mmHg 23%
    03:00 +26°C° 0 mm 5 mps 724 mmHg 23%
    04:00 +25°C° 0 mm 5 mps 724 mmHg 23%
    05:00 +24°C° 0 mm 6 mps 724 mmHg 23%
    06:00 +26°C° 0 mm 6 mps 724 mmHg 20%
    07:00 +27°C° 0 mm 6 mps 725 mmHg 18%
    08:00 +28°C° 0 mm 6 mps 725 mmHg 15%
    09:00 +30°C° 0 mm 6 mps 725 mmHg 14%
    10:00 +32°C° 0 mm 6 mps 725 mmHg 13%
    11:00 +34°C° 0 mm 6 mps 725 mmHg 12%
    12:00 +35°C° 0 mm 5 mps 725 mmHg 11%
    13:00 +36°C° 0 mm 5 mps 724 mmHg 11%
    14:00 +37°C° 0 mm 5 mps 724 mmHg 11%
    15:00 +37°C° 0 mm 5 mps 723 mmHg 10%
    16:00 +37°C° 0 mm 5 mps 723 mmHg 10%
    17:00 +37°C° 0 mm 5 mps 723 mmHg 9%
    18:00 +35°C° 0 mm 5 mps 723 mmHg 9%
    19:00 +33°C° 0 mm 5 mps 724 mmHg 9%
    20:00 +32°C° 0 mm 4 mps 724 mmHg 9%
    21:00 +30°C° 0 mm 4 mps 724 mmHg 9%
    22:00 +29°C° 0 mm 4 mps 725 mmHg 9%
    23:00 +28°C° 0 mm 3 mps 725 mmHg 9%
    Show more